Paducah, KY

4:30 AM CDT on May 27, 2017 (GMT -0500)
Barkley Regional

Weather History for KPAH - March, 2013

Change the Weather History Date:

Monday, March 4, 2013

  Actual Average Record
Temperature  
Mean Temperature 47 °F 45 °F  
Max Temperature 57 °F 55 °F 79 °F (1983)
Min Temperature 36 °F 34 °F 5 °F (1960)
Degree Days  
Heating Degree Days 18 21  
Month to date heating degree days 116 84  
Since 1 July heating degree days 3227 3380  
Cooling Degree Days 0 0  
Month to date cooling degree days 0 0  
Year to date cooling degree days 0 0  
Moisture  
Dew Point 29 °F    
Average Humidity 57    
Maximum Humidity 75    
Minimum Humidity 38    
Precipitation  
Precipitation 0.03 in 0.11 in 5.28 in (1964)
Month to date precipitation 0.13 0.45  
Year to date precipitation 11.88 8.04  
Snow  
Snow 0.00 in 0.10 in 8.10 in (2015)
Month to date snowfall 0.6 0.2  
Since 1 July snowfall 6.7 8.7  
Snow Depth 0.00 in    
Sea Level Pressure  
Sea Level Pressure 29.92 in    
Wind  
Wind Speed 11 mph (ESE)    
Max Wind Speed 23 mph    
Max Gust Speed 31 mph    
Visibility 10 miles    
Events Rain    
T = Trace of Precipitation, MM = Missing Value Source: NWS Daily Summary

Daily Weather History Graph

Daily Weather History Graph

Search for Another Location

Airport or City:

Trip Planner

Search our weather history database for the weather conditions in past years. The results will help you decide how hot, cold, wet, or windy it might be!

Date:

Astronomy

Mar. 04, 2013 Rise Set
Actual Time 6:21 AM CST 5:52 PM CST
Civil Twilight 5:55 AM CST 6:18 PM CST
Nautical Twilight 5:25 AM CST 6:48 PM CST
Astronomical Twilight 4:55 AM CST 7:18 PM CST
Moon 12:25 AM CST (3/4) 10:39 AM CST (3/4)
Length of Visible Light 12h 22m
Length of Day
11h 30m
Waning Gibbous, 52% of the Moon is Illuminated
Mar 4
Waning Gibbous
Mar 4
Last Quarter
Mar 11
New
Mar 19
First Quarter
Mar 27
Full

Hourly Weather History & Observations

Time (CST) Temp. Windchill Dew Point Humidity Pressure Visibility Wind Dir Wind Speed Gust Speed Precip Events Conditions
12:53 AM 37.0 °F 34.5 °F 24.1 °F 59% 30.10 in 10.0 mi ESE 3.5 mph - N/A   Overcast
1:53 AM 37.0 °F 32.4 °F 23.0 °F 57% 30.09 in 10.0 mi ESE 5.8 mph - N/A   Overcast
2:53 AM 37.0 °F 32.4 °F 23.0 °F 57% 30.08 in 10.0 mi SE 5.8 mph - N/A   Mostly Cloudy
3:53 AM 37.0 °F 30.4 °F 24.1 °F 59% 30.06 in 10.0 mi ESE 9.2 mph - N/A   Overcast
4:53 AM 37.0 °F 30.4 °F 24.1 °F 59% 30.06 in 10.0 mi ESE 9.2 mph - N/A   Clear
5:53 AM 36.0 °F 29.0 °F 24.1 °F 62% 30.06 in 10.0 mi SE 9.2 mph - N/A   Clear
6:53 AM 37.0 °F 28.9 °F 21.9 °F 54% 30.04 in 10.0 mi ESE 12.7 mph - N/A   Clear
7:53 AM 37.9 °F 29.6 °F 21.9 °F 53% 30.04 in 10.0 mi SE 13.8 mph - N/A   Clear
8:53 AM 41.0 °F 33.5 °F 23.0 °F 49% 30.02 in 10.0 mi SSE 13.8 mph - N/A   Clear
9:53 AM 45.0 °F 37.6 °F 24.1 °F 44% 29.98 in 10.0 mi SE 17.3 mph 26.5 mph N/A   Clear
10:53 AM 48.0 °F - 25.0 °F 41% 29.95 in 10.0 mi SSE 18.4 mph 29.9 mph N/A   Clear
11:53 AM 51.1 °F - 27.0 °F 39% 29.91 in 10.0 mi SE 20.7 mph 28.8 mph N/A   Clear
12:53 PM 55.0 °F - 30.0 °F 38% 29.86 in 10.0 mi SSE 19.6 mph 24.2 mph N/A   Clear
1:53 PM 55.9 °F - 30.9 °F 39% 29.81 in 10.0 mi SE 17.3 mph 24.2 mph N/A   Clear
2:53 PM 55.0 °F - 30.0 °F 38% 29.81 in 10.0 mi SSE 11.5 mph 18.4 mph N/A   Overcast
3:53 PM 55.0 °F - 30.9 °F 40% 29.80 in 10.0 mi SE 6.9 mph - N/A   Overcast
4:53 PM 54.0 °F - 30.9 °F 41% 29.79 in 10.0 mi ESE 6.9 mph - N/A   Overcast
5:53 PM 53.1 °F - 32.0 °F 45% 29.81 in 10.0 mi ESE 8.1 mph - N/A   Overcast
6:53 PM 53.1 °F - 30.9 °F 43% 29.82 in 10.0 mi East 6.9 mph - N/A   Overcast
7:53 PM 53.1 °F - 32.0 °F 45% 29.81 in 10.0 mi East 5.8 mph - N/A   Overcast
8:53 PM 51.1 °F - 35.1 °F 54% 29.81 in 10.0 mi ENE 4.6 mph - 0.00 in   Overcast
9:53 PM 48.9 °F - 37.0 °F 64% 29.81 in 10.0 mi ESE 5.8 mph - 0.01 in Rain Light Rain
10:53 PM 48.9 °F - 37.9 °F 66% 29.81 in 7.0 mi ESE 5.8 mph - 0.01 in Rain Light Rain
11:53 PM 46.0 °F 44.8 °F 41.0 °F 83% 29.78 in 10.0 mi East 3.5 mph - 0.01 in   Overcast